RYR44T EGSS-EPRZ

Flight info

Callsign RYR44T
Flight time 2h 14m
Altitude 37000
Route CLN P44 RATLO M197 REDFA L620 TACHA DCT KUMER DCT LASIS L986 LUXAR
Aircraft B738/M-SDE2E3FGHIRWXY/LB1

Departure

Time 2026-04-22 17:46
Airport London Stansted Airport (EGSS)

Arrival

Time 2026-04-22 20:00
Airport Rzeszów-Jasionka Airport (EPRZ)
Time Latitude Longitude Altitude Speed Heading
2026-04-22 17:25 51.89141 0.25783 356 ft 0 kts 230°
2026-04-22 17:35 51.89146 0.25793 363 ft 2 kts 229°
2026-04-22 17:35 51.89157 0.25814 364 ft 2 kts 234°
2026-04-22 17:35 51.89166 0.25837 356 ft 2 kts 244°
2026-04-22 17:35 51.89170 0.25859 358 ft 2 kts 294°
2026-04-22 17:36 51.89163 0.25875 359 ft 1 kts 314°
2026-04-22 17:36 51.89162 0.25876 360 ft 0 kts 314°
2026-04-22 17:38 51.89166 0.25870 356 ft 4 kts 315°
2026-04-22 17:38 51.89196 0.25817 360 ft 7 kts 312°
2026-04-22 17:39 51.89230 0.25756 356 ft 7 kts 312°
2026-04-22 17:39 51.89265 0.25698 356 ft 7 kts 314°
2026-04-22 17:39 51.89343 0.25542 361 ft 9 kts 281°
2026-04-22 17:40 51.89320 0.25480 361 ft 7 kts 223°
2026-04-22 17:40 51.89277 0.25420 361 ft 9 kts 220°
2026-04-22 17:40 51.89224 0.25347 356 ft 11 kts 220°
2026-04-22 17:40 51.89160 0.25258 362 ft 13 kts 223°
2026-04-22 17:41 51.89090 0.25146 357 ft 15 kts 223°
2026-04-22 17:41 51.89009 0.25025 354 ft 17 kts 223°
2026-04-22 17:41 51.88922 0.24893 353 ft 18 kts 223°
2026-04-22 17:41 51.88826 0.24747 356 ft 20 kts 224°
2026-04-22 17:42 51.88758 0.24643 352 ft 21 kts 224°
2026-04-22 17:42 51.88642 0.24477 354 ft 21 kts 223°
2026-04-22 17:42 51.88570 0.24369 350 ft 22 kts 223°
2026-04-22 17:42 51.88414 0.24135 354 ft 23 kts 224°
2026-04-22 17:43 51.88293 0.23950 352 ft 25 kts 222°
2026-04-22 17:43 51.88162 0.23757 350 ft 26 kts 222°
2026-04-22 17:43 51.88029 0.23557 348 ft 27 kts 223°
2026-04-22 17:43 51.87890 0.23348 344 ft 28 kts 223°
2026-04-22 17:44 51.87794 0.23204 343 ft 29 kts 223°
2026-04-22 17:44 51.87748 0.23002 344 ft 13 kts 306°
2026-04-22 17:44 51.87812 0.22890 345 ft 14 kts 316°
2026-04-22 17:44 51.87883 0.22777 345 ft 15 kts 310°
2026-04-22 17:45 51.87961 0.22683 346 ft 9 kts
2026-04-22 17:45 51.88150 0.22942 342 ft 72 kts 45°
2026-04-22 17:45 51.88482 0.23456 354 ft 123 kts 41°
2026-04-22 17:45 51.89152 0.24515 470 ft 171 kts 47°
2026-04-22 17:46 51.89884 0.25653 1062 ft 189 kts 47°
2026-04-22 17:46 51.90737 0.27373 1903 ft 195 kts 57°
2026-04-22 17:46 51.91516 0.29179 2803 ft 202 kts 66°
2026-04-22 17:46 51.91762 0.31462 3185 ft 215 kts 101°
2026-04-22 17:47 51.91166 0.33685 3736 ft 215 kts 118°
2026-04-22 17:47 51.90457 0.35864 3969 ft 230 kts 116°
2026-04-22 17:47 51.89718 0.38294 3973 ft 241 kts 115°
2026-04-22 17:47 51.88991 0.40759 4000 ft 244 kts 115°
2026-04-22 17:48 51.88254 0.43221 4005 ft 241 kts 115°
2026-04-22 17:48 51.87804 0.45817 4056 ft 246 kts 87°
2026-04-22 17:48 51.88067 0.48565 4722 ft 247 kts 83°
2026-04-22 17:48 51.88345 0.51316 5451 ft 250 kts 83°
2026-04-22 17:49 51.88621 0.54100 6066 ft 255 kts 84°
2026-04-22 17:49 51.88903 0.56968 6740 ft 259 kts 84°
2026-04-22 17:49 51.89185 0.59856 7410 ft 260 kts 84°
2026-04-22 17:49 51.89468 0.62772 8061 ft 264 kts 84°
2026-04-22 17:50 51.89754 0.65727 8680 ft 268 kts 84°
2026-04-22 17:50 51.90042 0.68720 9334 ft 270 kts 84°
2026-04-22 17:50 51.90331 0.71746 9984 ft 274 kts 84°
2026-04-22 17:50 51.90619 0.74773 10581 ft 277 kts 83°
2026-04-22 17:51 51.90919 0.77961 10787 ft 296 kts 83°
2026-04-22 17:51 51.91238 0.81353 10964 ft 315 kts 83°
2026-04-22 17:51 51.91341 0.82454 10998 ft 322 kts 83°
2026-04-22 17:51 51.91630 0.85532 11200 ft 334 kts 83°
2026-04-22 17:52 51.91983 0.89294 11643 ft 342 kts 83°
2026-04-22 17:52 51.92343 0.93131 12179 ft 346 kts 84°
2026-04-22 17:52 51.92705 0.97007 12808 ft 349 kts 83°
2026-04-22 17:52 51.93068 1.00903 13443 ft 352 kts 83°
2026-04-22 17:53 51.93433 1.04844 14074 ft 355 kts 83°
2026-04-22 17:53 51.93799 1.08821 14660 ft 358 kts 83°
2026-04-22 17:53 51.94166 1.12820 15271 ft 360 kts 83°
2026-04-22 17:53 51.94534 1.16841 15894 ft 362 kts 83°
2026-04-22 17:54 51.94902 1.20894 16486 ft 366 kts 83°
2026-04-22 17:54 51.95275 1.25007 17034 ft 369 kts 83°
2026-04-22 17:54 51.95647 1.29119 17741 ft 369 kts 83°
2026-04-22 17:54 51.96019 1.33265 18223 ft 375 kts 83°
2026-04-22 17:55 51.96395 1.37461 18824 ft 377 kts 83°
2026-04-22 17:55 51.96681 1.40669 19208 ft 378 kts 83°
2026-04-22 17:55 51.97018 1.44463 19622 ft 382 kts 82°
2026-04-22 17:55 51.97396 1.48729 20180 ft 382 kts 82°
2026-04-22 17:56 51.97775 1.53022 20598 ft 387 kts 82°
2026-04-22 17:56 51.98156 1.57359 21054 ft 390 kts 82°
2026-04-22 17:56 51.98538 1.61721 21563 ft 391 kts 82°
2026-04-22 17:56 51.98921 1.66121 21983 ft 396 kts 82°
2026-04-22 17:57 51.99413 1.70534 22386 ft 399 kts 76°
2026-04-22 17:57 52.00090 1.74904 22889 ft 400 kts 75°
2026-04-22 17:57 52.00771 1.79151 23288 ft 404 kts 75°
2026-04-22 17:57 52.01483 1.83577 23765 ft 405 kts 75°
2026-04-22 17:58 52.02190 1.88007 24181 ft 407 kts 75°
2026-04-22 17:58 52.02893 1.92465 24580 ft 408 kts 75°
2026-04-22 17:58 52.03590 1.96927 25020 ft 408 kts 74°
2026-04-22 17:58 52.04275 2.01346 25464 ft 408 kts 74°
2026-04-22 17:59 52.04966 2.05820 25788 ft 411 kts 74°
2026-04-22 17:59 52.05663 2.10348 26050 ft 415 kts 74°
2026-04-22 17:59 52.06366 2.14928 26334 ft 419 kts 74°
2026-04-22 17:59 52.07071 2.19537 26595 ft 423 kts 74°
2026-04-22 18:00 52.07552 2.22687 26769 ft 425 kts 74°
2026-04-22 18:00 52.08497 2.28902 27065 ft 431 kts 73°
2026-04-22 18:00 52.09220 2.33667 27317 ft 435 kts 73°
2026-04-22 18:00 52.09942 2.38438 27654 ft 436 kts 73°
2026-04-22 18:01 52.10666 2.43240 27926 ft 438 kts 73°
2026-04-22 18:01 52.11394 2.48073 28185 ft 441 kts 73°
2026-04-22 18:01 52.12201 2.52890 28468 ft 442 kts 71°
2026-04-22 18:01 52.13100 2.57680 28741 ft 444 kts 70°
2026-04-22 18:02 52.14040 2.62494 29019 ft 446 kts 69°
2026-04-22 18:02 52.14986 2.67323 29285 ft 448 kts 69°
2026-04-22 18:02 52.15924 2.72170 29527 ft 450 kts 70°
2026-04-22 18:02 52.16854 2.77038 29795 ft 452 kts 70°
2026-04-22 18:03 52.17778 2.81932 30154 ft 451 kts 70°
2026-04-22 18:03 52.18692 2.86811 30539 ft 450 kts 70°
2026-04-22 18:03 52.19603 2.91689 30853 ft 449 kts 70°
2026-04-22 18:03 52.20509 2.96557 31129 ft 449 kts 70°
2026-04-22 18:04 52.21413 3.01422 31421 ft 448 kts 70°
2026-04-22 18:04 52.22313 3.06273 31720 ft 447 kts 70°
2026-04-22 18:04 52.23212 3.11125 32018 ft 446 kts 70°
2026-04-22 18:04 52.24106 3.15966 32297 ft 446 kts 70°
2026-04-22 18:05 52.24933 3.20850 32554 ft 448 kts 75°
2026-04-22 18:05 52.25344 3.25905 32826 ft 451 kts 83°
2026-04-22 18:05 52.25277 3.31026 33106 ft 454 kts 92°
2026-04-22 18:05 52.24948 3.36147 33372 ft 454 kts 93°
2026-04-22 18:06 52.24579 3.41267 33606 ft 454 kts 93°
2026-04-22 18:06 52.24200 3.46392 33865 ft 454 kts 93°
2026-04-22 18:06 52.23827 3.51498 34152 ft 452 kts 93°
2026-04-22 18:06 52.23462 3.56594 34418 ft 451 kts 93°
2026-04-22 18:07 52.23107 3.61672 34597 ft 452 kts 93°
2026-04-22 18:07 52.22754 3.66777 34767 ft 452 kts 93°
2026-04-22 18:07 52.22405 3.71858 34966 ft 451 kts 93°
2026-04-22 18:07 52.22054 3.76946 35172 ft 451 kts 93°
2026-04-22 18:08 52.21722 3.81745 35336 ft 451 kts 93°
2026-04-22 18:08 52.21369 3.86826 35506 ft 451 kts 93°
2026-04-22 18:08 52.21014 3.91903 35674 ft 451 kts 94°
2026-04-22 18:08 52.20656 3.96978 35854 ft 450 kts 94°
2026-04-22 18:09 52.20296 4.02045 36019 ft 450 kts 94°
2026-04-22 18:09 52.19934 4.07105 36177 ft 450 kts 94°
2026-04-22 18:09 52.19568 4.12197 36342 ft 450 kts 94°
2026-04-22 18:09 52.19201 4.17266 36483 ft 450 kts 94°
2026-04-22 18:10 52.18832 4.22332 36622 ft 451 kts 94°
2026-04-22 18:10 52.18525 4.26522 36748 ft 450 kts 94°
2026-04-22 18:10 52.18181 4.31195 36899 ft 450 kts 94°
2026-04-22 18:10 52.17806 4.36256 37056 ft 450 kts 94°
2026-04-22 18:11 52.17433 4.41261 37200 ft 449 kts 94°
2026-04-22 18:11 52.17056 4.46292 37314 ft 450 kts 94°
2026-04-22 18:11 52.16674 4.51362 37361 ft 451 kts 95°
2026-04-22 18:12 52.15897 4.61593 37364 ft 450 kts 95°
2026-04-22 18:12 52.15252 4.69971 37367 ft 448 kts 95°
2026-04-22 18:13 52.14340 4.81698 37371 ft 445 kts 95°
2026-04-22 18:13 52.13560 4.91617 37370 ft 443 kts 95°
2026-04-22 18:14 52.12766 5.01607 37362 ft 442 kts 95°
2026-04-22 18:14 52.11969 5.11514 37368 ft 441 kts 95°
2026-04-22 18:15 52.11170 5.21353 37358 ft 441 kts 95°
2026-04-22 18:15 52.10357 5.31256 37360 ft 442 kts 95°
2026-04-22 18:16 52.09534 5.41173 37360 ft 443 kts 95°
2026-04-22 18:16 52.08702 5.51096 37357 ft 444 kts 95°
2026-04-22 18:17 52.07859 5.61044 37353 ft 445 kts 95°
2026-04-22 18:17 52.07006 5.71009 37353 ft 445 kts 95°
2026-04-22 18:18 52.06143 5.80980 37348 ft 446 kts 95°
2026-04-22 18:18 52.05271 5.90965 37347 ft 447 kts 96°
2026-04-22 18:19 52.04389 6.00958 37352 ft 447 kts 96°
2026-04-22 18:19 52.03499 6.10942 37348 ft 446 kts 96°
2026-04-22 18:20 52.02602 6.20909 37355 ft 446 kts 96°
2026-04-22 18:20 52.01697 6.30858 37356 ft 445 kts 96°
2026-04-22 18:21 52.00931 6.40784 37358 ft 442 kts 91°
2026-04-22 18:21 52.00601 6.50750 37362 ft 441 kts 90°
2026-04-22 18:22 52.00328 6.60666 37352 ft 440 kts 90°
2026-04-22 18:22 52.00012 6.70568 37356 ft 439 kts 91°
2026-04-22 18:23 51.99660 6.80453 37354 ft 438 kts 91°
2026-04-22 18:23 51.99292 6.90272 37349 ft 438 kts 91°
2026-04-22 18:24 51.98723 7.05035 37352 ft 437 kts 91°
2026-04-22 18:25 51.98135 7.19815 37353 ft 437 kts 91°
2026-04-22 18:25 51.97735 7.29636 37353 ft 437 kts 91°
2026-04-22 18:26 51.97202 7.42423 37358 ft 437 kts 91°
2026-04-22 18:26 51.96853 7.50601 37351 ft 437 kts 91°
2026-04-22 18:27 51.96427 7.60421 37353 ft 437 kts 92°
2026-04-22 18:27 51.95930 7.71635 37356 ft 437 kts 92°
2026-04-22 18:28 51.95559 7.79862 37353 ft 437 kts 92°
2026-04-22 18:28 51.95107 7.89690 37361 ft 437 kts 92°
2026-04-22 18:29 51.94648 7.99521 37354 ft 437 kts 92°
2026-04-22 18:29 51.94257 8.07755 37353 ft 437 kts 92°
2026-04-22 18:30 51.93543 8.22459 37355 ft 436 kts 92°
2026-04-22 18:31 51.93058 8.32247 37352 ft 435 kts 92°
2026-04-22 18:31 51.92567 8.42001 37356 ft 435 kts 92°
2026-04-22 18:32 51.92067 8.51755 37355 ft 434 kts 92°
2026-04-22 18:32 51.91561 8.61479 37352 ft 433 kts 92°
2026-04-22 18:33 51.91047 8.71191 37358 ft 432 kts 93°
2026-04-22 18:33 51.90527 8.80874 37346 ft 432 kts 93°
2026-04-22 18:34 51.89998 8.90559 37352 ft 431 kts 93°
2026-04-22 18:34 51.89466 9.00173 37353 ft 431 kts 93°
2026-04-22 18:35 51.88929 9.09722 37348 ft 430 kts 93°
2026-04-22 18:35 51.88379 9.19360 37348 ft 430 kts 93°
2026-04-22 18:36 51.87822 9.28982 37360 ft 429 kts 93°
2026-04-22 18:36 51.87257 9.38600 37350 ft 429 kts 93°
2026-04-22 18:37 51.86686 9.48192 37352 ft 429 kts 94°
2026-04-22 18:37 51.86118 9.57603 37345 ft 429 kts 94°
2026-04-22 18:38 51.85528 9.67248 37347 ft 428 kts 94°
2026-04-22 18:38 51.84937 9.76784 37352 ft 428 kts 94°
2026-04-22 18:39 51.84035 9.91085 37353 ft 428 kts 94°
2026-04-22 18:39 51.83423 10.00643 37344 ft 427 kts 94°
2026-04-22 18:40 51.82803 10.10182 37343 ft 427 kts 94°
2026-04-22 18:40 51.82176 10.19719 37358 ft 426 kts 94°
2026-04-22 18:41 51.81543 10.29242 37339 ft 426 kts 94°
2026-04-22 18:41 51.80902 10.38747 37341 ft 425 kts 94°
2026-04-22 18:42 51.80254 10.48249 37338 ft 425 kts 94°
2026-04-22 18:42 51.79599 10.57738 37339 ft 424 kts 94°
2026-04-22 18:43 51.78938 10.67190 37358 ft 424 kts 95°
2026-04-22 18:43 51.78269 10.76656 37338 ft 424 kts 95°
2026-04-22 18:44 51.77595 10.86086 37341 ft 423 kts 95°
2026-04-22 18:44 51.76913 10.95520 37339 ft 422 kts 95°
2026-04-22 18:45 51.76225 11.04924 37330 ft 421 kts 95°
2026-04-22 18:45 51.75530 11.14319 37323 ft 421 kts 95°
2026-04-22 18:46 51.74829 11.23681 37325 ft 420 kts 95°
2026-04-22 18:46 51.74128 11.32958 37325 ft 419 kts 95°
2026-04-22 18:47 51.73411 11.42338 37323 ft 418 kts 95°
2026-04-22 18:47 51.72699 11.51563 37327 ft 417 kts 95°
2026-04-22 18:48 51.71975 11.60838 37330 ft 416 kts 95°
2026-04-22 18:48 51.71244 11.70105 37327 ft 416 kts 95°
2026-04-22 18:49 51.70508 11.79351 37327 ft 415 kts 95°
2026-04-22 18:49 51.69764 11.88592 37328 ft 415 kts 95°
2026-04-22 18:50 51.69015 11.97805 37324 ft 414 kts 95°
2026-04-22 18:50 51.68280 12.06756 37320 ft 414 kts 95°
2026-04-22 18:51 51.67518 12.15958 37314 ft 414 kts 96°
2026-04-22 18:51 51.66749 12.25143 37314 ft 414 kts 96°
2026-04-22 18:52 51.65974 12.34318 37308 ft 414 kts 96°
2026-04-22 18:52 51.65196 12.43440 37311 ft 414 kts 96°
2026-04-22 18:53 51.64406 12.52616 37309 ft 414 kts 96°
2026-04-22 18:53 51.63608 12.61797 37311 ft 414 kts 96°
2026-04-22 18:54 51.62803 12.70963 37303 ft 413 kts 96°
2026-04-22 18:54 51.61992 12.80124 37293 ft 413 kts 96°
2026-04-22 18:55 51.61176 12.89258 37285 ft 413 kts 96°
2026-04-22 18:55 51.60351 12.98415 37279 ft 413 kts 96°
2026-04-22 18:56 51.59521 13.07534 37273 ft 412 kts 96°
2026-04-22 18:56 51.58684 13.16656 37275 ft 412 kts 96°
2026-04-22 18:57 51.57842 13.25747 37275 ft 411 kts 96°
2026-04-22 18:57 51.56994 13.34829 37272 ft 410 kts 96°
2026-04-22 18:58 51.56140 13.43900 37277 ft 410 kts 96°
2026-04-22 18:58 51.55311 13.52622 37278 ft 409 kts 96°
2026-04-22 18:59 51.54893 13.56984 37280 ft 409 kts 96°
2026-04-22 18:59 51.54024 13.66018 37282 ft 409 kts 96°
2026-04-22 19:00 51.53151 13.75029 37282 ft 409 kts 96°
2026-04-22 19:00 51.52270 13.84043 37276 ft 409 kts 96°
2026-04-22 19:01 51.51383 13.93045 37277 ft 409 kts 96°
2026-04-22 19:01 51.50487 14.02066 37275 ft 409 kts 96°
2026-04-22 19:02 51.49584 14.11077 37270 ft 409 kts 96°
2026-04-22 19:02 51.48674 14.20085 37266 ft 409 kts 96°
2026-04-22 19:03 51.47758 14.29086 37261 ft 409 kts 97°
2026-04-22 19:03 51.46832 14.38108 37261 ft 409 kts 97°
2026-04-22 19:04 51.45902 14.47111 37260 ft 409 kts 97°
2026-04-22 19:04 51.44963 14.56115 37256 ft 409 kts 97°
2026-04-22 19:05 51.44018 14.65117 37253 ft 409 kts 97°
2026-04-22 19:05 51.43067 14.74102 37251 ft 409 kts 97°
2026-04-22 19:06 51.42111 14.83078 37249 ft 409 kts 97°
2026-04-22 19:07 51.40631 14.96518 37243 ft 409 kts 99°
2026-04-22 19:07 51.38956 15.05186 37243 ft 411 kts 104°
2026-04-22 19:08 51.37140 15.13850 37244 ft 410 kts 104°
2026-04-22 19:08 51.35328 15.22513 37237 ft 410 kts 104°
2026-04-22 19:09 51.33526 15.31158 37233 ft 410 kts 104°
2026-04-22 19:09 51.32014 15.38410 37233 ft 410 kts 104°
2026-04-22 19:10 51.29912 15.48453 37232 ft 410 kts 104°
2026-04-22 19:10 51.28390 15.55695 37230 ft 411 kts 104°
2026-04-22 19:11 51.26583 15.64264 37229 ft 411 kts 104°
2026-04-22 19:11 51.24730 15.73005 37220 ft 412 kts 105°
2026-04-22 19:12 51.22928 15.81474 37223 ft 412 kts 105°
2026-04-22 19:12 51.21074 15.90146 37215 ft 413 kts 105°
2026-04-22 19:13 51.19215 15.98807 37217 ft 413 kts 105°
2026-04-22 19:13 51.17353 16.07445 37216 ft 413 kts 105°
2026-04-22 19:14 51.15477 16.16109 37215 ft 413 kts 105°
2026-04-22 19:14 51.13598 16.24757 37209 ft 414 kts 105°
2026-04-22 19:15 51.11707 16.33418 37209 ft 413 kts 105°
2026-04-22 19:15 51.09813 16.42055 37200 ft 413 kts 105°
2026-04-22 19:16 51.07915 16.50680 37196 ft 413 kts 105°
2026-04-22 19:16 51.06526 16.56950 37190 ft 413 kts 105°
2026-04-22 19:17 51.04620 16.65550 37193 ft 413 kts 105°
2026-04-22 19:17 51.02719 16.74096 37190 ft 413 kts 105°
2026-04-22 19:18 51.00799 16.82688 37180 ft 413 kts 105°
2026-04-22 19:18 50.98860 16.91328 37183 ft 413 kts 105°
2026-04-22 19:19 50.96940 16.99848 37185 ft 413 kts 105°
2026-04-22 19:19 50.94999 17.08426 37183 ft 413 kts 105°
2026-04-22 19:20 50.93050 17.17004 37188 ft 414 kts 105°
2026-04-22 19:20 50.91095 17.25571 37186 ft 414 kts 105°
2026-04-22 19:21 50.89130 17.34149 37183 ft 414 kts 105°
2026-04-22 19:21 50.87156 17.42731 37184 ft 415 kts 105°
2026-04-22 19:22 50.85177 17.51301 37177 ft 415 kts 105°
2026-04-22 19:22 50.83187 17.59884 37178 ft 415 kts 105°
2026-04-22 19:23 50.81190 17.68464 37176 ft 416 kts 105°
2026-04-22 19:23 50.79188 17.77028 37169 ft 416 kts 105°
2026-04-22 19:24 50.77178 17.85595 37170 ft 416 kts 105°
2026-04-22 19:24 50.75161 17.94155 37169 ft 416 kts 105°
2026-04-22 19:25 50.73141 18.02698 37173 ft 416 kts 105°
2026-04-22 19:25 50.71110 18.11248 37166 ft 416 kts 105°
2026-04-22 19:26 50.69075 18.19788 37165 ft 416 kts 105°
2026-04-22 19:26 50.67045 18.28269 37165 ft 416 kts 105°
2026-04-22 19:27 50.64981 18.36859 37165 ft 416 kts 106°
2026-04-22 19:27 50.62940 18.45318 37166 ft 416 kts 106°
2026-04-22 19:28 50.60878 18.53837 37166 ft 416 kts 106°
2026-04-22 19:28 50.58817 18.62315 37165 ft 417 kts 106°
2026-04-22 19:29 50.56739 18.70829 37159 ft 417 kts 106°
2026-04-22 19:29 50.54655 18.79338 37160 ft 417 kts 106°
2026-04-22 19:30 50.52903 18.86463 37159 ft 418 kts 106°
2026-04-22 19:30 50.50461 18.96358 37156 ft 418 kts 106°
2026-04-22 19:31 50.48436 19.04532 37150 ft 419 kts 106°
2026-04-22 19:31 50.46319 19.13040 37151 ft 419 kts 106°
2026-04-22 19:32 50.44193 19.21557 37172 ft 419 kts 106°
2026-04-22 19:32 50.42057 19.30078 36945 ft 423 kts 106°
2026-04-22 19:32 50.40972 19.34404 36155 ft 426 kts 106°
2026-04-22 19:33 50.39891 19.38691 35567 ft 422 kts 105°
2026-04-22 19:33 50.38811 19.42965 34964 ft 420 kts 105°
2026-04-22 19:33 50.37739 19.47196 34371 ft 417 kts 105°
2026-04-22 19:33 50.36672 19.51403 33729 ft 414 kts 105°
2026-04-22 19:34 50.35613 19.55578 33033 ft 412 kts 105°
2026-04-22 19:34 50.34555 19.59743 32374 ft 411 kts 105°
2026-04-22 19:34 50.33495 19.63910 31724 ft 411 kts 105°
2026-04-22 19:34 50.32439 19.68051 31092 ft 410 kts 106°
2026-04-22 19:35 50.31742 19.70779 30680 ft 410 kts 106°
2026-04-22 19:35 50.31374 19.72220 30474 ft 413 kts 106°
2026-04-22 19:35 50.29922 19.77912 29594 ft 428 kts 107°
2026-04-22 19:36 50.28824 19.82201 29260 ft 431 kts 107°
2026-04-22 19:36 50.26581 19.90903 29155 ft 434 kts 107°
2026-04-22 19:37 50.24325 19.99609 29141 ft 432 kts 107°
2026-04-22 19:37 50.22063 20.08324 29148 ft 433 kts 107°
2026-04-22 19:37 50.20933 20.12663 28941 ft 429 kts 107°
2026-04-22 19:38 50.19815 20.16943 28394 ft 423 kts 107°
2026-04-22 19:38 50.18712 20.21155 27904 ft 416 kts 107°
2026-04-22 19:38 50.17623 20.25309 27419 ft 410 kts 107°
2026-04-22 19:38 50.16553 20.29390 26949 ft 405 kts 107°
2026-04-22 19:39 50.15491 20.33431 26485 ft 400 kts 107°
2026-04-22 19:39 50.14442 20.37422 26016 ft 396 kts 107°
2026-04-22 19:39 50.13402 20.41371 25572 ft 392 kts 106°
2026-04-22 19:39 50.12373 20.45269 25130 ft 388 kts 107°
2026-04-22 19:40 50.11350 20.49140 24695 ft 384 kts 106°
2026-04-22 19:40 50.10337 20.52968 24263 ft 381 kts 106°
2026-04-22 19:40 50.09364 20.56638 23855 ft 378 kts 106°
2026-04-22 19:40 50.08362 20.60412 23387 ft 375 kts 106°
2026-04-22 19:41 50.07368 20.64146 22863 ft 373 kts 107°
2026-04-22 19:41 50.06378 20.67865 22335 ft 371 kts 107°
2026-04-22 19:41 50.05389 20.71570 21808 ft 370 kts 107°
2026-04-22 19:41 50.04401 20.75267 21285 ft 369 kts 107°
2026-04-22 19:42 50.03428 20.78904 20750 ft 369 kts 107°
2026-04-22 19:42 50.02439 20.82596 20101 ft 371 kts 107°
2026-04-22 19:42 50.01441 20.86315 19489 ft 373 kts 108°
2026-04-22 19:42 50.00438 20.90043 18886 ft 375 kts 108°
2026-04-22 19:43 49.98402 20.97589 17603 ft 377 kts 108°
2026-04-22 19:43 49.97386 21.01346 16946 ft 378 kts 108°
2026-04-22 19:43 49.96377 21.05073 16297 ft 379 kts 109°
2026-04-22 19:44 49.95354 21.08847 15662 ft 380 kts 109°
2026-04-22 19:44 49.94325 21.12631 15039 ft 381 kts 109°
2026-04-22 19:44 49.93408 21.16464 14412 ft 378 kts 99°
2026-04-22 19:44 49.93257 21.20474 13795 ft 371 kts 81°
2026-04-22 19:45 49.93668 21.24410 13144 ft 369 kts 77°
2026-04-22 19:45 49.94142 21.28336 12343 ft 372 kts 76°
2026-04-22 19:45 49.94611 21.32278 11518 ft 368 kts 77°
2026-04-22 19:45 49.95052 21.36171 10712 ft 363 kts 77°
2026-04-22 19:46 49.95473 21.40004 9910 ft 359 kts 77°
2026-04-22 19:46 49.95880 21.43761 9064 ft 355 kts 77°
2026-04-22 19:46 49.96263 21.47314 8263 ft 351 kts 77°
2026-04-22 19:46 49.96661 21.51023 7589 ft 344 kts 77°
2026-04-22 19:47 49.97043 21.54599 7380 ft 328 kts 77°
2026-04-22 19:47 49.97409 21.58030 7236 ft 317 kts 77°
2026-04-22 19:47 49.97645 21.60235 7149 ft 310 kts 77°
2026-04-22 19:47 49.98109 21.64586 6760 ft 305 kts 77°
2026-04-22 19:48 49.98462 21.67870 6192 ft 311 kts 77°
2026-04-22 19:48 49.98819 21.71204 5551 ft 317 kts 77°
2026-04-22 19:48 49.99185 21.74640 4810 ft 327 kts 77°
2026-04-22 19:48 49.99556 21.78139 4306 ft 327 kts 77°
2026-04-22 19:49 49.99914 21.81577 4142 ft 317 kts 77°
2026-04-22 19:49 50.00260 21.84903 4003 ft 306 kts 77°
2026-04-22 19:49 50.00592 21.88092 3977 ft 292 kts 76°
2026-04-22 19:49 50.00909 21.91144 3961 ft 279 kts 76°
2026-04-22 19:50 50.01212 21.94049 3951 ft 266 kts 76°
2026-04-22 19:50 50.01501 21.96832 3970 ft 258 kts 76°
2026-04-22 19:50 50.01784 21.99558 3978 ft 257 kts 76°
2026-04-22 19:50 50.02070 22.02307 3989 ft 258 kts 76°
2026-04-22 19:51 50.02252 22.05104 3985 ft 262 kts 84°
2026-04-22 19:51 50.02258 22.07947 3992 ft 264 kts 86°
2026-04-22 19:51 50.02233 22.10795 3994 ft 265 kts 86°
2026-04-22 19:51 50.02214 22.13687 3984 ft 267 kts 86°
2026-04-22 19:52 50.02206 22.16566 3977 ft 266 kts 85°
2026-04-22 19:52 50.02206 22.19445 3977 ft 265 kts 85°
2026-04-22 19:52 50.02208 22.22306 3978 ft 264 kts 85°
2026-04-22 19:52 50.02214 22.24993 3979 ft 262 kts 83°
2026-04-22 19:53 50.02732 22.27591 3980 ft 248 kts 47°
2026-04-22 19:53 50.04019 22.29221 3994 ft 235 kts 24°
2026-04-22 19:53 50.04991 22.29895 3996 ft 225 kts 15°
2026-04-22 19:53 50.06857 22.30817 3980 ft 201 kts 12°
2026-04-22 19:54 50.08143 22.31106 3963 ft 173 kts 350°
2026-04-22 19:54 50.09186 22.30580 3958 ft 147 kts 328°
2026-04-22 19:54 50.09922 22.29560 3994 ft 143 kts 310°
2026-04-22 19:54 50.10394 22.28244 3979 ft 139 kts 295°
2026-04-22 19:55 50.10517 22.26745 3992 ft 143 kts 279°
2026-04-22 19:55 50.10567 22.25189 3980 ft 143 kts 279°
2026-04-22 19:55 50.10614 22.23653 3960 ft 139 kts 280°
2026-04-22 19:55 50.10654 22.22193 3722 ft 132 kts 279°
2026-04-22 19:56 50.10690 22.20774 3263 ft 131 kts 279°
2026-04-22 19:56 50.10727 22.19361 3081 ft 132 kts 279°
2026-04-22 19:56 50.10748 22.18422 2990 ft 130 kts 278°
2026-04-22 19:56 50.10772 22.17054 2654 ft 124 kts 278°
2026-04-22 19:57 50.10796 22.15698 2179 ft 125 kts 277°
2026-04-22 19:57 50.10819 22.14322 2032 ft 129 kts 277°
2026-04-22 19:57 50.10840 22.12906 1745 ft 129 kts 277°
2026-04-22 19:57 50.10863 22.11485 1545 ft 133 kts 275°
2026-04-22 19:58 50.10883 22.10228 1383 ft 135 kts 272°
2026-04-22 19:58 50.10901 22.08924 1237 ft 136 kts 271°
2026-04-22 19:58 50.10919 22.07468 1039 ft 133 kts 271°
2026-04-22 19:58 50.10939 22.06025 884 ft 133 kts 271°
2026-04-22 19:59 50.10957 22.04609 702 ft 132 kts 271°
2026-04-22 20:00 50.11068 22.01097 699 ft 20 kts 298°
2026-04-22 20:00 50.11129 22.00975 699 ft 9 kts 344°
2026-04-22 20:01 50.11163 22.00987 696 ft 0 kts 42°